Location: Newark
(43.4306°N, 0.3089°E)
Time: 04:05:11
(UTC+00:00)

S-56A Canister/Altair - Pass Details

Date: 24 August 2019
Orbit: 633 x 2499 km, 38.9° (Epoch: 21 September)

Event Time Altitude Azimuth Distance (km) Brightness Sun altitude
Rises 01:41:31 0° 270° (W) 2,984 - -30.7°
Reaches altitude 10° 01:44:05 10° 254° (WSW) 2,169 - -30.5°
Maximum altitude 01:47:53 22° 203° (SSW) 1,690 - -30.2°
Drops below altitude 10° 01:52:32 10° 154° (SSE) 2,727 - -29.7°
Sets 01:56:15 0° 141° (SE) 3,996 - -29.4°
